Track NAVSTAR 56 (USA 180) now! NAVSTAR 56 (USA 180) is classified as:
1 28474U 04045A 24278.56467413 -.00000089 00000-0 00000-0 0 9995 2 28474 55.4032 349.8336 0164373 295.2221 42.9757 2.00562517145977